• Join FlightAware (Why Join?)
  • Login
  • US Flag 
05:55AM EDT


 

Airport Tracker/Info


-or-


 

Live Flight TrackerFlight Track Log ✈ SWA2353 ✈ 21-Jul-2014 ✈ KDEN - KSAN

Flight Track Log - Related Links

Times and Time Zones

All times are in EDT time to prevent confusion due to time zone crossing. See the SWA2353 flight status page for this flight to view local times or setup timezone preferences in your user account.

Time Position Orientation Groundspeed Altitude Reporting Facility
EDT Latitude Longitude Course Direction KTS MPH feet Rate Location/Type
08:40AM 39.8000 -104.6667 226° Southwest 209 241 7,100  Level Denver TRACON
08:41AM 39.7500 -104.7333 226° Southwest 286 329 8,400 1,500 Climbing Denver TRACON
08:42AM 39.7500 -104.8500 270° West 312 359 10,100 1,260 Climbing Denver TRACON
08:43AM 39.7667 -104.9833 279° West 357 411 11,100 2,040 Climbing Denver TRACON
08:44AM 39.7333 -105.1000 250° West 360 414 14,200 2,880 Climbing Denver TRACON
08:45AM 39.6833 -105.2333 244° Southwest 381 438 16,900 2,460 Climbing Denver TRACON
08:46AM 39.6500 -105.3500 250° West 395 455 19,200 2,160 Climbing Denver TRACON
08:47AM 39.5944 -105.4936 243° Southwest 398 458 21,700 2,100 Climbing Denver Center
08:48AM 39.5506 -105.6283 247° West 401 461 24,000 2,100 Climbing Denver Center
08:49AM 39.5022 -105.8003 250° West 417 480 26,000 1,020 Climbing Denver Center
08:50AM 39.4625 -105.9447 250° West 424 488 26,100 900 Climbing Denver Center
08:51AM 39.4231 -106.0867 250° West 424 488 27,900 1,620 Climbing Denver Center
08:52AM 39.3836 -106.2267 250° West 427 491 29,500 1,860 Climbing Denver Center
08:53AM 39.3444 -106.3628 250° West 426 490 31,700 2,280 Climbing Denver Center
08:54AM 39.3006 -106.5142 250° West 406 467 34,200 1,980 Climbing Denver Center
08:55AM 39.2639 -106.6397 249° West 394 453 35,800 1,440 Climbing Denver Center
08:56AM 39.2119 -106.7556 240° Southwest 391 450 37,200 1,080 Climbing Denver Center
08:57AM 39.1478 -106.8828 237° Southwest 384 442 38,000 360 Climbing Denver Center
08:58AM 39.0908 -106.9911 236° Southwest 384 442 38,000  Level Denver Center
08:59AM 39.0261 -107.1181 237° Southwest 381 438 38,000  Level Denver Center
09:00AM 38.9692 -107.2275 236° Southwest 381 438 38,000  Level Denver Center
09:01AM 38.9125 -107.3383 237° Southwest 382 440 38,000  Level Denver Center
09:02AM 38.8475 -107.4639 236° Southwest 378 435 38,000  Level Denver Center
09:03AM 38.7906 -107.5725 236° Southwest 379 436 38,000  Level Denver Center
09:04AM 38.7319 -107.6825 236° Southwest 385 443 38,000  Level Denver Center
09:05AM 38.6650 -107.8108 236° Southwest 385 443 38,000  Level Denver Center
09:06AM 38.6072 -107.9197 236° Southwest 385 443 38,000  Level Denver Center
09:07AM 38.5489 -108.0303 236° Southwest 386 444 38,000  Level Denver Center
09:08AM 38.4822 -108.1564 236° Southwest 386 444 38,000  Level Denver Center
09:09AM 38.4250 -108.2631 236° Southwest 384 442 38,000  Level Denver Center
09:10AM 38.3675 -108.3700 236° Southwest 383 441 38,000  Level Denver Center
09:11AM 38.3019 -108.4936 236° Southwest 379 436 38,000  Level Denver Center
09:12AM 38.2442 -108.6028 236° Southwest 382 440 38,000  Level Denver Center
09:13AM 38.1856 -108.7092 235° Southwest 383 441 38,000  Level Denver Center
09:14AM 38.1172 -108.8336 235° Southwest 383 441 38,000  Level Denver Center
09:15AM 38.0594 -108.9400 235° Southwest 383 441 38,000  Level Denver Center
09:16AM 37.9983 -109.0489 235° Southwest 379 436 38,000  Level Denver Center
09:17AM 37.9303 -109.1708 235° Southwest 379 436 38,000  Level Denver Center
09:18AM 37.8719 -109.2769 235° Southwest 380 437 38,000  Level Denver Center
09:19AM 37.8128 -109.3839 235° Southwest 385 443 38,000  Level Denver Center
09:20AM 37.7458 -109.5064 235° Southwest 382 440 38,000 780 Level Denver Center
09:21AM 37.6892 -109.6089 235° Southwest 375 432 39,600 960 Climbing Denver Center
09:22AM 37.6242 -109.7233 234° Southwest 364 419 40,000 180 Climbing Denver Center
09:23AM 37.5672 -109.8244 235° Southwest 365 420 40,000  Level Denver Center
09:25AM 37.5106 -109.9256 235° Southwest 367 422 40,000  Level Denver Center
09:26AM 37.4439 -110.0450 235° Southwest 372 428 40,000  Level Denver Center
09:27AM 37.3850 -110.1469 234° Southwest 374 430 40,000  Level Denver Center
09:28AM 37.3183 -110.2644 235° Southwest 374 430 40,000  Level Denver Center
09:29AM 37.2569 -110.3717 234° Southwest 376 433 40,000  Level Denver Center
09:30AM 37.1964 -110.4781 234° Southwest 377 434 40,000  Level Denver Center
09:31AM 37.1342 -110.5861 234° Southwest 378 435 40,000  Level Denver Center
09:32AM 37.0728 -110.6919 234° Southwest 379 436 40,000  Level Denver Center
09:33AM 37.0122 -110.7992 235° Southwest 378 435 40,000  Level Denver Center
09:34AM 36.9497 -110.9047 233° Southwest 378 435 40,000  Level Denver Center
09:35AM 36.8889 -111.0083 234° Southwest 376 433 40,000  Level Denver Center
09:36AM 36.8292 -111.1125 234° Southwest 373 429 40,000  Level Denver Center
09:37AM 36.7697 -111.2158 234° Southwest 370 426 40,000  Level Denver Center
09:38AM 36.6964 -111.3422 234° Southwest 370 426 40,000  Level Denver Center
09:39AM 36.6314 -111.4483 233° Southwest 375 432 40,000  Level Denver Center
09:40AM 36.5706 -111.5528 234° Southwest 376 433 40,000  Level Denver Center
09:41AM 36.5064 -111.6583 233° Southwest 376 433 40,000  Level Denver Center
09:42AM 36.4444 -111.7647 234° Southwest 378 435 40,000 -300 Level Denver Center
09:43AM 36.3814 -111.8703 233° Southwest 378 435 39,500 -780 Descending Denver Center
09:44AM 36.3175 -111.9758 233° Southwest 378 435 38,500 -780 Descending Denver Center
09:45AM 36.2542 -112.0814 233° Southwest 379 436 38,000 -300 Descending Denver Center
09:46AM 36.1906 -112.1875 233° Southwest 379 436 38,000  Level Denver Center
09:47AM 36.1136 -112.3142 233° Southwest 381 438 38,000  Level Denver Center
09:48AM 36.0231 -112.4644 233° Southwest 384 442 38,000  Level Los Angeles Center
09:49AM 35.9586 -112.5700 233° Southwest 384 442 38,000  Level Los Angeles Center
09:50AM 35.8969 -112.6703 233° Southwest 386 444 38,000  Level Los Angeles Center
09:51AM 35.8331 -112.7747 233° Southwest 385 443 38,000  Level Los Angeles Center
09:53AM 35.7697 -112.8789 233° Southwest 385 443 38,000  Level Los Angeles Center
09:54AM 35.7064 -112.9831 233° Southwest 384 442 38,000  Level Los Angeles Center
09:55AM 35.6303 -113.1044 232° Southwest 383 441 38,000  Level Los Angeles Center
09:56AM 35.5656 -113.2086 233° Southwest 379 436 38,000  Level Los Angeles Center
09:57AM 35.5019 -113.3147 234° Southwest 386 444 38,000  Level Los Angeles Center
09:58AM 35.4358 -113.4194 232° Southwest 390 449 38,000  Level Los Angeles Center
09:59AM 35.3706 -113.5242 233° Southwest 391 450 38,000  Level Los Angeles Center
10:00AM 35.2897 -113.6511 232° Southwest 393 452 38,000  Level Los Angeles Center
10:01AM 35.2231 -113.7561 232° Southwest 393 452 38,000  Level Los Angeles Center
10:02AM 35.1564 -113.8622 232° Southwest 393 452 38,000  Level Los Angeles Center
10:03AM 35.0861 -113.9722 232° Southwest 390 449 38,000  Level Los Angeles Center
10:04AM 35.0194 -114.0761 232° Southwest 387 445 38,000 -480 Level Los Angeles Center
10:05AM 34.9522 -114.1822 232° Southwest 389 448 37,100 -1,800 Descending Los Angeles Center
10:06AM 34.8861 -114.2856 232° Southwest 389 448 34,400 -2,640 Descending Los Angeles Center
10:07AM 34.8189 -114.3900 232° Southwest 389 448 31,700 -2,160 Descending Los Angeles Center
10:08AM 34.7353 -114.5086 229° Southwest 388 447 30,000 -840 Descending Los Angeles Center
10:09AM 34.6553 -114.6006 223° Southwest 389 448 30,000  Level Los Angeles Center
10:10AM 34.5808 -114.6831 222° Southwest 392 451 30,000  Level Los Angeles Center
10:11AM 34.5003 -114.7769 224° Southwest 396 456 30,000  Level Los Angeles Center
10:12AM 34.4189 -114.8681 223° Southwest 399 459 30,000  Level Los Angeles Center
10:13AM 34.3208 -114.9781 223° Southwest 399 459 30,000 -240 Level Los Angeles Center
10:14AM 34.2392 -115.0711 223° Southwest 402 463 29,600 -780 Descending Los Angeles Center
10:15AM 34.1578 -115.1631 223° Southwest 402 463 28,400 -1,560 Descending Los Angeles Center
10:16AM 34.0750 -115.2569 223° Southwest 403 464 26,400 -1,980 Descending Los Angeles Center
10:17AM 33.9908 -115.3508 223° Southwest 408 470 24,400 -1,200 Descending Los Angeles Center
10:18AM 33.9078 -115.4431 223° Southwest 408 470 24,000 -240 Descending Los Angeles Center
10:19AM 33.8092 -115.5514 222° Southwest 404 465 24,000  Level Los Angeles Center
10:20AM 33.7278 -115.6425 223° Southwest 403 464 24,000  Level Los Angeles Center
10:21AM 33.6450 -115.7336 223° Southwest 403 464 24,000  Level Los Angeles Center
10:22AM 33.5761 -115.8383 232° Southwest 403 464 24,000  Level Los Angeles Center
10:23AM 33.5075 -115.9403 231° Southwest 395 455 24,000 -300 Level Los Angeles Center
10:24AM 33.4267 -116.0211 220° Southwest 384 442 23,400 -1,500 Descending Los Angeles Center
10:26AM 33.3375 -116.1106 220° Southwest 354 407 20,900 -2,220 Descending Los Angeles Center
10:27AM 33.2650 -116.1844 220° Southwest 347 399 18,900 -1,860 Descending Los Angeles Center
10:28AM 33.1953 -116.2542 220° Southwest 333 383 17,100 -1,860 Descending Los Angeles Center
10:29AM 33.1261 -116.3239 220° Southwest 331 381 15,100 -1,680 Descending Los Angeles Center
10:30AM 33.0456 -116.4044 220° Southwest 331 381 13,700 -1,260 Descending Los Angeles Center
10:31AM 32.9708 -116.4633 213° Southwest 326 375 12,600 -1,260 Descending Los Angeles Center
10:32AM 32.8919 -116.5092 206° Southwest 318 366 11,200 -1,260 Descending Los Angeles Center
10:33AM 32.8272 -116.5675 217° Southwest 303 349 10,000 -1,140 Descending Los Angeles Center
10:34AM 32.7889 -116.6456 240° Southwest 284 327 8,900 -1,320 Descending Los Angeles Center
10:35AM 32.7458 -116.7358 240° Southwest 268 308 7,300 -1,200 Descending Los Angeles Center
10:36AM 32.7125 -116.8061 241° Southwest 254 292 6,500 -780 Descending Los Angeles Center
10:37AM 32.6897 -116.8742 248° West 228 262 5,700 -780 Descending Los Angeles Center
10:38AM 32.6733 -116.9311 251° West 196 226 4,900 -960 Descending Los Angeles Center
10:39AM 32.6850 -116.9878 284° West 186 214 3,800 -1,080 Descending Los Angeles Center
10:40AM 32.6983 -117.0450 285° West 185 213 2,700 -1,140 Descending Los Angeles Center
10:41AM 32.7128 -117.1033 286° West 161 185 1,500 -1,020 Descending Los Angeles Center
10:42AM 32.7222 -117.1467 285° West 144 166 700 -540 Descending Los Angeles Center
10:43AM 32.7333 -117.1856 289° West 141 162 400 -300 Descending Los Angeles Center
10:45AM 32.7333 -117.1833 281° West  Level FlightAware Approximate
10:52AM 32.7336 -117.1897 281° West  Level Estimated